Weather in Ust-Ilga

Russia / Irkutsk Oblast     55°00′33″N   105°04′50″E
temp.,
°C
wind,
m/s
gust,
m/s
humid.,
%
clouds,
%
prec.,
mm/h
press.,
hPa
HPBL,
m
7 may, fri
fri723:00+1wnw31097100 0.4 1010751
02:000nw3993100 0.6 1011896
05:000wnw2493100 0.0 1013212
08:00+2nnw247990 0.1 1014644
11:00+3n346383 0.1 10141149
14:00+8nne333860 0.1 10131989
17:00+9ne333628 0.0 10121895
20:00+5ne37585 0.0 1013327
8 may, sat
sat823:000ene1190100 0.0 101512
02:00−1e2194100 0.0 101518
05:00−1e119596 0.0 101510
08:00+3se1269100 0.0 1014301
11:00+9sw2346100 0.0 10111402
14:00+5w4581100 0.2 1013630
17:00+5wnw367879 0.1 1013699
20:00+5wnw247953 0.1 1013160
9 may, sun
sun923:00+4wsw119188 0.0 101324
02:00+3sw1294100 0.1 101287
05:00+3w2586100 0.0 1012260
08:00+5ssw017992 0.1 1011397
11:00+11wsw234386 0.0 10091724
14:00+7wsw3577100 0.4 1010809
17:00+6wnw2481100 0.2 1010655
20:00+6wnw2481100 0.3 1010566
10 may, mon
mon1023:00+3nw2196100 0.1 101117
02:00+2nw2596100 0.1 1012216
05:00+2wnw2794100 0.0 1013535
08:00+2nw3890100 0.4 1013679
11:00+3nw4779100 0.2 1014845
14:00+3nw2796100 2.3 1015532
17:00+3nw2697100 1.4 1015462
20:00+4nw259699 1.5 1015402
11 may, tue
tue1123:00+3wnw1295100 0.0 101547
02:000wnw119786 0.0 101610
05:00+2w1199100 0.6 1014212
08:00+4wnw0193100 0.6 1013351
11:00+6ene0184100 0.1 1012632
14:00+6ne1288100 0.5 1012668
17:00+6n1186100 0.4 1011710
20:00+4nnw1397100 1.2 1012326